COSMOS 2251 DEB, 34680

Orbit data source: Space-Track

COSMOS 2251 DEB, 34680 is space debris in LEO originally from a launch on Wed, 16 Jun 1993 UTC launched from the Plesetsk Missile And Space Complex (PKMTR). The debris from Iridium 33, an American commercial communications satellite, has been tracked extensively since its accidental collision with the defunct Russian satellite Cosmos 2251 in 2009. This event, occurring at high speed in low Earth orbit (LEO), generated thousands of pieces of space debris, significantly increasing the risk of further collisions. The Iridium 33 debris cloud has impacted space traffic management and orbital debris mitigation strategies, making it a subject of ongoing study in space situational awareness.

Loading next visibility...
Identifier
34680, 1993-036YA
Orbit
LEO
Country
Flag of CISCIS
Related business
Manufacturer
Unknown
Mission
Spacecraft
Bus & Motor
Unknown
Mass
Unknown
Launch date (UTC)
1993-06-16 (33 years ago)
Launch vehicle
Unknown
Launch site
Plesetsk Missile And Space Complex (PKMTR)
Object type
Payload
Rocket body
Debris
Shape & HBR
Unknown shape, 0.1 m
Radar Cross Section
Medium (>0.1 m² and <1 m²)

Expand to show TLE details & history
Last TLE update: 18 hours ago

TLE from 18 hours ago
0 COSMOS 2251 DEB
1 34680U 93036YA  26208.96329029  .00004066  00000-0  80432-3 0  9996
2 34680  74.0421  55.2075 0007023  89.4854 340.8428 14.62659480916487
Epoch: 2026-07-27T23:07Z
TLE epoch observation values (Epoch: 2026-07-27T23:07:08.281Z)
Latitude
64.95036°
Longitude
160.26798°
Altitude
690.765 km
Speed
7.52 km/s
True Right ascension
06h 10m 46s
True Declination
64° 49' 01"
Sunlit
Object was in daylight at epoch
Visualization orbit readout
Latitude
Unknown
Longitude
Unknown
Altitude
Unknown
Speed
Unknown
Apparent Right ascension
Unknown
Apparent Declination
Unknown
Sunlit
N/A
Visualization observer readout
Local Sidereal Time
06:29:48
Azimuth
Unknown
Elevation
Unknown
Doppler factor
Unknown
Orbital elements
Apogee altitude
687.152 km
Perigee altitude
677.235 km
Semi-major axis
7,060.331 km
Eccentricity
0.0007
Inclination
74.0421°
RAAN
55.2075°
Arg. of periapsis
89.4854°
True anomaly
340.81637°
Mean anomaly
340.8428°
Eccentric anomaly
340.82959°
Mean motion
3.65852 °/min
Orbital period
98.4 mins
BSTAR
0.00080432
Loading maneuver chart data...
Computing Atmospheric mass density...

Documentation

Showing up to 5 results
|